Preview of NWS' New Version of Forecast
This preview is not operational and should not be used for support decisions.

Regional Weather Roundup (RWR)

Issued by National Weather Service (NWS)

                            
000
ASUS45 KBOI 191110
RWRID 

IDAHO REGIONAL WEATHER ROUNDUP
NATIONAL WEATHER SERVICE BOISE ID
500 AM MDT FRI APR 19 2019

NOTE: "FAIR" INDICATES FEW OR NO CLOUDS BELOW 12000 FEET
WITH NO SIGNIFICANT WEATHER AND/OR OBSTRUCTIONS TO VISIBILITY

IDZ012-014-191200-
SOUTHWEST IDAHO

  
CITY           SKY/WX    TMP DP  RH WIND       PRES   REMARKS
BOISE          CLEAR     54  38  54 E10       30.08F                  
CALDWELL       CLEAR     48  42  80 CALM      30.08F                  
MOUNTAIN HOME  CLEAR     40  40 100 CALM      30.10F                  
$$

IDZ016-017-191200-
SOUTHCENTRAL IDAHO

  
CITY           SKY/WX    TMP DP  RH WIND       PRES   REMARKS
BURLEY         CLEAR     41  37  86 CALM      30.16F                  
JEROME         CLEAR     47  36  65 N7        30.15F                  
TWIN FALLS     CLEAR     47  38  71 S9        30.15F                  
$$

IDZ019>023-191200-
SOUTHEAST IDAHO

  
CITY           SKY/WX    TMP DP  RH WIND       PRES   REMARKS
IDAHO FALLS    CLEAR     39  33  79 CALM      30.21S                  
POCATELLO      CLEAR     43  34  70 N3        30.19F                  
REXBURG        CLEAR     37  31  78 N6        30.21S WCI  32          
$$

IDZ006-010-011-018-031-032-191200-
CENTRAL IDAHO MOUNTAINS

  
CITY           SKY/WX    TMP DP  RH WIND       PRES   REMARKS
MCCALL         CLEAR     32  28  85 CALM      30.16F                  
HAILEY         CLEAR     41  32  70 NW7       30.23S                  
STANLEY          N/A     27  23  85 S3        30.28S                  
SALMON         CLEAR     38  34  85 CALM      30.17S                  
CHALLIS        CLEAR     39  29  67 NW3       30.20S                  
$$

IDZ002-004-006-007-026-191200-
NORTHERN IDAHO

  
CITY           SKY/WX    TMP DP  RH WIND       PRES   REMARKS
LEWISTON       PTCLDY    56  47  71 E5        29.99F                  
LOWELL           N/A     45  44  97 N6        30.09                   
COEUR D'ALENE  LGT RAIN  53  47  79 SE5       29.98S                  
MULLAN PASS    CLOUDY    44  39  82 VRB3      30.07F                  
$$